Location: Borger
(52.9222°N, 6.7926°E)
Time: 19:51:13
(UTC+00:00)

Cosmos 2297 Rocket - Pass Details

Date: 15 May 2026
Orbit: 838 x 842 km, 71.0° (Epoch: 7 June)

Event Time Altitude Azimuth Distance (km) Brightness Sun altitude
Exits shadow 23:28:06 31° 192° (SSW) 1,442 2.8 -18.0°
Maximum altitude 23:30:52 70° 117° (ESE) 895 2.2 -18.0°
Drops below altitude 10° 23:36:29 10° 35° (NE) 2,467 5.5 -18.0°
Sets 23:38:57 0° 33° (NNE) 3,407 6.4 -18.0°
